• în România
  • Lista ţărilor
  • Pe 7 zile
  • Temperatura apei
  • Hartă satelitară
  • Meteo pe hartă
  • Widget-uri
  • user-avatar
    Intrare

    Meteo pe oră la Eisenstadt

    Astăzi, 28 Mai, Duminică

    Timp Temperatura Precipitaţii Vânt Presiune Umiditate
    00:00 +11°C° 0 mm 1 m/s 727 mmHg 91%
    01:00 +11°C° 0 mm 1 m/s 727 mmHg 91%
    02:00 +10°C° 0 mm 1 m/s 727 mmHg 92%
    03:00 +10°C° 0 mm 1 m/s 727 mmHg 92%
    04:00 +9°C° 0 mm 1 m/s 727 mmHg 92%
    05:00 +12°C° 0 mm 1 m/s 727 mmHg 86%
    06:00 +14°C° 0 mm 2 m/s 728 mmHg 80%
    07:00 +16°C° 0 mm 2 m/s 728 mmHg 74%
    08:00 +18°C° 0 mm 2 m/s 728 mmHg 68%
    09:00 +19°C° 0 mm 2 m/s 728 mmHg 62%
    10:00 +20°C° 0 mm 3 m/s 728 mmHg 57%
    11:00 +21°C° 0 mm 3 m/s 728 mmHg 55%
    12:00 +22°C° 0 mm 3 m/s 728 mmHg 53%
    13:00 +24°C° 0 mm 3 m/s 728 mmHg 52%
    14:00 +22°C° 0 mm 3 m/s 728 mmHg 52%
    15:00 +22°C° 0 mm 3 m/s 727 mmHg 53%
    16:00 +22°C° 0 mm 3 m/s 727 mmHg 54%
    17:00 +21°C° 0 mm 3 m/s 727 mmHg 61%
    18:00 +19°C° 0 mm 3 m/s 726 mmHg 68%
    19:00 +18°C° 0 mm 2 m/s 726 mmHg 75%
    20:00 +16°C° 0 mm 2 m/s 726 mmHg 77%
    21:00 +15°C° 0 mm 2 m/s 726 mmHg 79%
    22:00 +14°C° 0 mm 2 m/s 726 mmHg 82%
    23:00 +13°C° 0 mm 2 m/s 726 mmHg 82%

    Mâine, 29 Mai, Luni

    Timp Temperatura Precipitaţii Vânt Presiune Umiditate
    00:00 +13°C° 0 mm 2 m/s 726 mmHg 82%
    01:00 +12°C° 0 mm 2 m/s 726 mmHg 83%
    02:00 +12°C° 0 mm 2 m/s 725 mmHg 84%
    03:00 +12°C° 0 mm 2 m/s 725 mmHg 84%
    04:00 +10°C° 0 mm 2 m/s 724 mmHg 85%
    05:00 +13°C° 0 mm 2 m/s 725 mmHg 81%
    06:00 +15°C° 0 mm 2 m/s 725 mmHg 76%
    07:00 +17°C° 0 mm 2 m/s 725 mmHg 72%
    08:00 +19°C° 0 mm 3 m/s 725 mmHg 67%
    09:00 +21°C° 0 mm 3 m/s 725 mmHg 63%
    10:00 +22°C° 0 mm 4 m/s 725 mmHg 58%
    11:00 +23°C° 0 mm 4 m/s 725 mmHg 57%
    12:00 +25°C° 0 mm 4 m/s 724 mmHg 55%
    13:00 +26°C° 0 mm 4 m/s 724 mmHg 54%
    14:00 +25°C° 0 mm 4 m/s 724 mmHg 55%
    15:00 +25°C° 0 mm 4 m/s 723 mmHg 57%
    16:00 +25°C° 0 mm 4 m/s 723 mmHg 58%
    17:00 +24°C° 0 mm 3 m/s 723 mmHg 65%
    18:00 +21°C° 0 mm 3 m/s 723 mmHg 73%
    19:00 +19°C° 0 mm 2 m/s 722 mmHg 80%
    20:00 +18°C° 0 mm 2 m/s 722 mmHg 82%
    21:00 +16°C° 0 mm 2 m/s 722 mmHg 85%
    22:00 +15°C° 0 mm 2 m/s 722 mmHg 88%
    23:00 +15°C° 0 mm 2 m/s 722 mmHg 89%

    Poimâine, 30 Mai, Marţi

    Timp Temperatura Precipitaţii Vânt Presiune Umiditate
    00:00 +14°C° 0 mm 2 m/s 722 mmHg 90%
    01:00 +14°C° 0 mm 2 m/s 722 mmHg 91%
    02:00 +13°C° 0 mm 2 m/s 722 mmHg 91%
    03:00 +13°C° 0 mm 1 m/s 722 mmHg 92%
    04:00 +12°C° 0 mm 1 m/s 721 mmHg 92%
    05:00 +15°C° 0 mm 1 m/s 722 mmHg 87%
    06:00 +18°C° 0 mm 1 m/s 722 mmHg 82%
    07:00 +20°C° 0 mm 1 m/s 723 mmHg 77%
    08:00 +22°C° 0 mm 1 m/s 723 mmHg 71%
    09:00 +24°C° 0 mm 1 m/s 723 mmHg 65%
    10:00 +25°C° 0 mm 1 m/s 723 mmHg 59%
    11:00 +26°C° 0 mm 2 m/s 723 mmHg 57%
    12:00 +27°C° 0 mm 2 m/s 723 mmHg 55%
    13:00 +27°C° 0 mm 2 m/s 723 mmHg 54%
    14:00 +27°C° 0,3 mm 2 m/s 723 mmHg 55%
    15:00 +27°C° 0,3 mm 2 m/s 723 mmHg 57%
    16:00 +27°C° 0,3 mm 2 m/s 722 mmHg 58%
    17:00 +26°C° 0,1 mm 2 m/s 722 mmHg 65%
    18:00 +24°C° 0,1 mm 2 m/s 722 mmHg 72%
    19:00 +23°C° 0,1 mm 1 m/s 722 mmHg 79%
    20:00 +22°C° 0,2 mm 1 m/s 722 mmHg 82%
    21:00 +19°C° 0,2 mm 2 m/s 722 mmHg 85%
    22:00 +18°C° 0,2 mm 2 m/s 722 mmHg 88%
    23:00 +18°C° 0,6 mm 2 m/s 722 mmHg 89%

    31 Mai, Miercuri

    Timp Temperatura Precipitaţii Vânt Presiune Umiditate
    00:00 +18°C° 0,6 mm 2 m/s 722 mmHg 89%
    01:00 +18°C° 0,6 mm 2 m/s 722 mmHg 89%
    02:00 +18°C° 0,2 mm 2 m/s 722 mmHg 89%
    03:00 +18°C° 0,2 mm 2 m/s 722 mmHg 89%
    04:00 +17°C° 0,2 mm 2 m/s 722 mmHg 89%
    05:00 +18°C° 0,1 mm 2 m/s 722 mmHg 86%
    06:00 +19°C° 0,1 mm 2 m/s 723 mmHg 83%
    07:00 +20°C° 0,1 mm 3 m/s 723 mmHg 80%
    08:00 +21°C° 0,3 mm 3 m/s 723 mmHg 77%
    09:00 +22°C° 0,3 mm 3 m/s 723 mmHg 73%
    10:00 +24°C° 0,3 mm 3 m/s 723 mmHg 69%
    11:00 +24°C° 0,2 mm 3 m/s 723 mmHg 66%
    12:00 +25°C° 0,2 mm 2 m/s 723 mmHg 64%
    13:00 +26°C° 0,2 mm 2 m/s 723 mmHg 61%
    14:00 +26°C° 0,4 mm 2 m/s 723 mmHg 62%
    15:00 +26°C° 0,4 mm 2 m/s 723 mmHg 63%
    16:00 +26°C° 0,4 mm 2 m/s 722 mmHg 64%
    17:00 +24°C° 1,1 mm 2 m/s 722 mmHg 71%
    18:00 +23°C° 1,1 mm 2 m/s 722 mmHg 79%
    19:00 +22°C° 1,1 mm 1 m/s 722 mmHg 86%
    20:00 +21°C° 0,9 mm 1 m/s 722 mmHg 88%
    21:00 +19°C° 0,9 mm 2 m/s 723 mmHg 90%
    22:00 +18°C° 0,9 mm 2 m/s 723 mmHg 92%
    23:00 +17°C° 0,7 mm 2 m/s 723 mmHg 92%

    1 Iunie, Joi

    Timp Temperatura Precipitaţii Vânt Presiune Umiditate
    00:00 +17°C° 0,7 mm 2 m/s 723 mmHg 93%
    01:00 +16°C° 0,7 mm 2 m/s 723 mmHg 93%
    02:00 +16°C° 0,3 mm 2 m/s 723 mmHg 93%
    03:00 +15°C° 0,3 mm 2 m/s 723 mmHg 94%
    04:00 +15°C° 0,3 mm 2 m/s 723 mmHg 94%
    05:00 +16°C° 0 mm 2 m/s 723 mmHg 90%
    06:00 +17°C° 0 mm 3 m/s 723 mmHg 87%
    07:00 +18°C° 0 mm 3 m/s 724 mmHg 84%
    08:00 +18°C° 0,1 mm 3 m/s 724 mmHg 79%
    09:00 +19°C° 0,1 mm 3 m/s 724 mmHg 75%
    10:00 +20°C° 0,1 mm 3 m/s 724 mmHg 71%
    11:00 +20°C° 0,5 mm 3 m/s 724 mmHg 72%
    12:00 +20°C° 0,5 mm 2 m/s 724 mmHg 73%
    13:00 +20°C° 0,5 mm 2 m/s 724 mmHg 74%
    14:00 +20°C° 0,2 mm 2 m/s 724 mmHg 74%
    15:00 +20°C° 0,2 mm 2 m/s 724 mmHg 74%
    16:00 +20°C° 0,2 mm 2 m/s 723 mmHg 75%
    17:00 +19°C° 0,1 mm 2 m/s 723 mmHg 77%
    18:00 +19°C° 0,1 mm 1 m/s 723 mmHg 80%
    19:00 +19°C° 0,1 mm 1 m/s 723 mmHg 82%
    20:00 +17°C° 0 mm 2 m/s 724 mmHg 83%
    21:00 +15°C° 0 mm 2 m/s 724 mmHg 84%
    22:00 +14°C° 0 mm 2 m/s 724 mmHg 84%
    23:00 +14°C° 0,4 mm 2 m/s 724 mmHg 85%

    2 Iunie, Vineri

    Timp Temperatura Precipitaţii Vânt Presiune Umiditate
    00:00 +13°C° 0,4 mm 2 m/s 724 mmHg 85%
    01:00 +13°C° 0,4 mm 2 m/s 724 mmHg 86%
    02:00 +12°C° 0,1 mm 2 m/s 724 mmHg 86%
    03:00 +12°C° 0,1 mm 2 m/s 724 mmHg 86%
    04:00 +12°C° 0,1 mm 2 m/s 724 mmHg 87%
    05:00 +12°C° 0 mm 2 m/s 724 mmHg 84%
    06:00 +13°C° 0 mm 2 m/s 724 mmHg 81%
    07:00 +14°C° 0 mm 2 m/s 724 mmHg 78%
    08:00 +15°C° 0 mm 2 m/s 725 mmHg 73%
    09:00 +17°C° 0 mm 2 m/s 725 mmHg 68%
    10:00 +18°C° 0 mm 2 m/s 725 mmHg 63%
    11:00 +19°C° 0 mm 2 m/s 725 mmHg 62%
    12:00 +20°C° 0 mm 1 m/s 724 mmHg 60%
    13:00 +21°C° 0 mm 1 m/s 724 mmHg 59%
    14:00 +21°C° 0 mm 1 m/s 724 mmHg 59%
    15:00 +22°C° 0 mm 1 m/s 724 mmHg 58%
    16:00 +22°C° 0 mm 1 m/s 723 mmHg 58%
    17:00 +21°C° 0 mm 1 m/s 723 mmHg 65%
    18:00 +20°C° 0 mm 1 m/s 723 mmHg 72%
    19:00 +18°C° 0 mm 1 m/s 723 mmHg 78%
    20:00 +16°C° 0 mm 1 m/s 723 mmHg 81%
    21:00 +15°C° 0 mm 1 m/s 723 mmHg 84%
    22:00 +13°C° 0 mm 1 m/s 723 mmHg 87%
    23:00 +13°C° 0 mm 1 m/s 723 mmHg 88%
    Arată mai mult